Back to catalog

CZ-6A DEB

AlivePO
NORAD 61272·DEBRIS·🇨🇳 China

Launched Aug 6, 2024 from Taiyuan Satellite Launch Center

Loading…

Next Passes (next 24 hours)

TLE

FreshSource: Space-Track

Epoch: Sep 13, 2026, 00:52 UTC

1 61272U 24140SH  26256.03640012  .00001575  00000-0  70327-3 0  9996
2 61272  88.9988 264.9783 0055057 264.0304  95.4610 14.21506701106122

Track CZ-6A DEB in real time with AllMySat

Download on the App Store